SCP
0 0 0 0 0 0 0 0 0 0 0 0 0 0 0 0 0 0 0 0 0 0 0 0 0 0 0 0 -0 0 0 0 0 0 0 0 0 0 0 0 0 0 -0 0
0 0 0 0 0 0 0 0 0 0 0 0 0 0 0 0 0 0 0 0 0 0 0 0 0 0 0 0 0 0 0 0 0 0 0 0 0 0 0 0 0 -0 -0 -0
0 0 0 0 0 0 0 0 0 0 0 0 0 0 0 0 0 0 0 0 0 0 0 0 0 0 0 0 0 0 0 0 0 0 0 0 0 0 0 0 0 -0 -0 -0
0 0 0 0 0 0 0 0 0 0 0 0 0 0 0 0 0 0 0 0 0 0 0 0 0 0 0 0 0 0 0 0 0 0 0 0 0 0 0 0 0 -0 -0 -0
0 0 0 0 0 0 0 0 0 0 0 0 0 0 0 0 0 0 0 0 0 0 0 0 0 0 0 0 0 0 0 -0 -0 -0 0 0 0 0 0 0 0 -0 -0 -0
0 0 0 0 0 0 0 0 0 0 0 0 0 0 0 0 0 0 0 0 0 0 0 0 -0 -0 -0 -0 0 0 0 0 0 -0 0 0 -0 -0 0 0 -0 -0 -0 -0
0 0 0 0 0 0 0 0 0 0 0 0 0 0 0 0 0 0 0 0 0 0 0 0 -0 0 0 -0 -0 -0 -0 0 -0 -0 -0 -0 0 0 0 0 0 0 0 -0
0 0 0 0 0 0 0 0 0 0 0 0 0 0 0 0 0 0 0 0 0 0 0 0 0 0 0 0 -0 -0 -0 -0 0 0 0 0 -0 0 0 0 0 0 0 0
0 0 0 0 0 0 0 0 0 0 0 0 0 0 0 0 0 0 0 0 0 -0 0 0 0 0 0 0 0 0 0 -0 0 0 0 0 0 -0 0 0 0 0 0 0
0 0 0 -0 0 0 0 0 0 0 0 0 0 0 0 0 0 0 0 0 0 -0 -0 -0 0 0 0 0 0 0 0 0 -0 0 0 -0 -0 -0 0 0 0 0 0 0
0 0 0 -0 0 0 0 0 0 0 0 0 0 0 0 0 0 0 0 0 0 0 0 -0 0 0 0 0 0 0 0 0 0 0 0 0 -0 -0 0 0 0 0 0 0
0 0 0 -0 0 0 0 0 0 0 0 0 0 0 0 -0 -0 -0 0 0 0 -0 -0 0 0 0 0 0 0 0 0 0 0 0 0 0 0 -0 0 -0 0 0 0 0
0 0 0 0 0 0 0 0 0 0 0 0 0 0 0 0 -0 -0 0 0 -0 0 0 0 0 0 0 0 0 0 0 0 0 0 0 0 0 0 -0 0 0 0 0 0
0 0 0 0 0 0 0 0 0 0 0 0 0 0 0 -0 0 -0 -0 0 0 0 0 0 0 0 0 0 0 0 0 0 0 -0 -0 -0 0 -0 -0 0 0 0 0 0
0 0 0 0 0 0 0 0 0 0 0 0 0 0 0 -0 0 -0 -0 -0 0 0 0 0 0 0 0 0 0 0 0 0 0 0 -0 0 0 -0 0 0 0 0 0 0
0 0 0 0 0 0 0 0 0 0 0 0 0 0 0 0 -0 0 -0 -0 0 0 0 0 0 0 0 0 0 0 0 0 0 0 0 0 -0 -0 -0 0 0 0 0 0
0 0 0 0 0 0 0 0 0 0 0 0 0 0 -0 -0 0 0 0 0 0 0 0 0 0 0 0 0 0 -0 0 -0 -0 -0 -0 -0 -0 -0 0 0 0 0 0 0
0 0 0 0 0 0 0 0 0 0 0 0 0 0 0 0 0 0 0 0 0 0 0 0 0 0 0 -0 -0 0 0 0 0 0 -0 -0 -0 -0 0 0 0 0 0 0
0 0 0 0 0 0 0 -0 0 0 0 0 0 0 0 0 0 0 0 0 0 0 0 0 0 0 -0 -0 -0 -0 0 -0 0 -0 -0 -0 -0 -0 0 0 0 0 0 0
0 0 0 0 0 -0 0 0 0 0 0 0 0 0 0 0 0 0 0 0 0 0 0 0 0 0 0 0 -0 -0 -0 0 0 0 0 0 -0 0 -0 0 0 0 0 0
0 0 0 0 0 0 0 0 0 0 0 -0 -0 0 0 0 0 0 0 0 0 0 0 0 0 -0 0 0 -0 -0 -0 -0 0 -0 -0 -0 -0 0 0 0 0 0 0 0
0 0 0 0 0 0 0 0 0 0 0 0 0 0 0 0 0 0 0 0 0 0 0 0 -0 -0 0 0 0 -0 -0 -0 0 -0 -0 -0 -0 -0 0 0 0 0 0 0
0 0 0 0 0 0 0 0 0 0 0 0 0 0 0 0 0 0 0 0 0 0 0 0 0 0 0 -0 -0 0 0 -0 -0 -0 -0 -0 -0 -0 0 0 0 0 0 0
0 0 0 0 0 0 0 0 0 0 0 0 0 0 0 0 0 0 0 0 0 0 0 0 0 -0 0 0 0 -0 0 0 -0 -0 -0 -0 -0 -0 -0 0 0 0 0 0
0 0 0 0 0 0 0 0 0 0 0 0 0 0 0 0 0 0 0 0 0 0 0 0 0 0 0 0 0 -0 0 0 -0 -0 -0 -0 -0 -0 -0 -0 0 0 0 0
0 0 0 0 0 0 0 0 0 0 0 0 0 0 0 0 0 0 0 0 0 0 0 0 0 0 0 0 0 0 -0 -0 -0 -0 -0 -0 -0 -0 -0 -0 -0 0 0 0
0 0 0 0 0 0 0 0 0 0 0 0 0 0 0 0 0 0 0 0 -0 0 0 0 0 0 0 0 0 0 0 0 0 0 0 0 0 -0 -0 -0 -0 -0 -0 0
Wind_Speed_500mb
59 59 60 57 63 67 55 17 4 17 8 7 4 1 8 17 8 5 9 8 9 10 7 10 8 10 8 13 5 9 4 2 7 12 12 8 4 6 4 8 11 14 6 13
63 56 57 55 54 60 55 24 9 9 17 4 5 11 10 10 7 9 5 8 5 5 6 11 9 12 11 31 3 5 3 2 7 10 6 9 5 5 8 3 2 10 9 14
65 61 53 53 47 49 38 15 8 8 11 7 4 8 8 8 17 15 6 10 14 5 8 14 13 18 16 17 7 27 8 7 9 8 5 3 9 16 18 11 8 15 31 24
58 61 55 51 47 40 26 15 3 5 8 6 8 7 9 13 13 7 23 8 7 16 15 28 33 20 12 22 26 11 12 12 12 18 22 20 21 26 29 29 24 18 7 6
54 53 57 51 48 40 15 14 10 9 15 25 8 9 6 16 13 10 19 11 27 27 25 30 42 34 23 16 7 5 5 5 4 20 22 27 31 30 34 36 36 34 29 28
52 51 52 51 37 38 12 18 8 5 11 7 4 7 9 11 30 21 18 32 35 29 32 41 59 63 67 36 21 10 7 4 1 11 10 13 18 35 37 39 29 23 29 14
52 52 49 45 27 31 26 24 16 4 8 5 8 14 32 32 18 21 38 46 22 24 66 75 49 36 37 31 31 35 14 13 6 7 3 10 9 8 19 39 31 28 19 20
54 50 48 39 22 21 26 26 15 7 8 15 24 15 12 34 36 32 30 44 45 51 30 9 12 7 2 6 10 23 29 17 6 6 8 18 23 4 10 9 4 18 12 22
59 52 48 43 28 16 26 27 26 16 10 9 22 32 28 12 8 9 16 43 43 21 7 6 7 6 7 7 11 2 25 26 14 8 8 9 5 4 24 14 7 10 7 15
53 51 51 38 35 19 22 27 29 21 15 30 17 15 14 18 11 8 16 20 14 19 8 8 5 6 10 7 12 10 1 6 24 17 10 12 15 24 24 10 1 19 18 21
47 51 45 31 28 20 26 30 31 36 23 55 50 34 28 33 26 6 13 18 6 8 12 6 5 5 6 7 7 11 6 8 3 7 8 9 22 23 10 13 35 30 29 26
47 48 42 27 23 25 26 35 30 32 51 57 79 82 71 75 71 39 10 9 9 3 3 2 5 5 5 9 6 5 5 4 6 4 4 9 22 32 54 55 40 24 29 41
47 45 41 32 27 24 26 36 34 36 37 53 39 23 10 11 8 24 18 11 10 8 10 4 4 8 3 5 5 6 7 1 5 9 5 21 14 37 37 35 27 37 18 16
46 44 40 34 29 26 32 37 38 38 20 11 21 17 55 51 35 36 43 34 11 10 10 8 4 6 10 5 10 5 7 10 12 7 12 34 20 45 43 52 47 43 22 14
46 44 40 37 32 30 33 39 45 46 32 9 28 61 5 15 20 31 39 47 41 13 5 6 6 7 7 6 5 5 4 7 6 6 31 19 24 34 52 58 54 52 36 29
44 43 39 33 28 25 22 12 5 8 32 7 8 18 14 18 13 12 32 40 35 16 6 8 11 10 5 3 5 9 16 35 30 13 45 24 33 39 45 49 50 51 49 33
43 41 37 30 25 20 17 8 12 9 21 7 10 12 10 20 7 1 11 21 18 15 8 9 8 7 6 3 5 11 36 35 28 41 37 23 35 29 41 38 44 50 48 39
42 37 31 27 23 23 26 13 28 14 13 10 5 8 15 3 7 5 5 8 10 12 8 6 6 6 2 5 11 16 20 24 34 37 34 26 28 31 31 30 30 36 42 41
41 27 15 8 4 6 4 16 15 36 26 10 6 4 7 9 6 5 6 9 4 6 4 5 2 2 6 11 5 14 21 19 29 26 34 36 35 31 31 26 24 24 37 48
33 13 2 5 3 10 13 5 7 11 17 16 8 10 6 8 5 5 4 5 4 4 5 4 3 6 17 13 3 11 16 14 21 32 41 37 39 33 29 28 23 20 25 32
31 20 6 12 15 11 5 5 8 9 6 11 11 19 11 11 6 6 3 3 2 3 4 1 5 6 7 9 6 6 9 13 16 23 23 25 31 32 30 32 27 19 21 27
34 21 20 14 3 6 2 6 6 8 8 9 8 9 19 10 14 3 2 2 3 7 8 2 5 7 11 11 6 3 7 16 20 19 20 22 29 36 35 30 30 25 15 14
5 4 6 5 5 6 10 8 5 5 3 7 13 7 9 9 11 4 3 3 7 3 4 6 8 7 18 16 9 8 9 14 15 17 16 16 24 35 41 33 31 27 17 14
4 6 8 8 8 10 9 7 4 10 16 27 37 13 13 9 4 3 5 4 5 5 3 9 6 15 23 21 14 13 14 10 11 13 15 16 22 33 39 42 40 37 33 21
8 8 10 11 20 16 11 12 13 19 30 23 26 10 8 4 4 4 2 2 5 10 9 7 15 15 19 20 15 14 15 9 6 8 10 13 15 26 36 37 40 43 44 41
9 14 11 20 7 9 5 7 19 19 28 31 8 4 5 9 7 7 12 10 11 8 7 18 13 26 26 22 12 13 18 7 10 8 6 8 9 17 26 27 34 39 43 45
10 14 24 38 33 27 28 17 36 33 18 4 5 4 8 4 4 4 9 9 7 13 15 13 22 34 34 27 17 17 20 14 9 14 6 5 9 10 16 23 30 34 38 41
Wind_Direction_500mb
350 351 351 356 355 354 2 1 43 360 331 23 48 57 307 300 288 290 285 280 243 252 294 278 272 258 309 329 349 317 321 1 283 264 290 344 338 257 230 205 253 252 130 278
348 349 348 354 358 356 352 347 319 358 352 75 322 306 289 270 286 295 305 293 262 322 300 294 266 271 310 310 297 285 335 308 312 323 350 28 86 315 268 228 158 221 224 242
345 349 346 347 360 357 354 352 358 344 51 79 78 318 292 284 316 288 254 260 269 294 270 236 274 273 309 303 233 303 266 216 218 221 293 346 298 296 299 273 256 252 245 288
339 346 347 344 351 1 3 6 26 356 306 326 326 239 282 279 325 281 304 295 237 301 288 300 271 277 291 272 297 308 183 229 220 243 260 268 259 268 271 262 256 249 327 292
335 338 344 344 343 3 3 3 360 335 291 295 275 265 240 283 315 308 300 249 290 292 282 273 285 283 267 254 279 224 164 265 258 280 263 245 251 259 258 251 246 255 257 269
332 334 337 344 345 351 354 342 310 281 267 293 342 251 275 308 309 282 260 290 294 295 280 290 282 274 268 252 247 210 195 238 269 269 264 322 288 246 237 243 238 219 234 224
328 331 332 337 344 330 331 336 326 281 272 236 223 286 288 288 293 280 285 290 274 279 308 302 292 260 253 248 244 230 202 196 217 265 7 245 227 341 301 244 230 221 248 247
321 322 330 330 325 317 309 308 300 242 269 255 294 299 289 299 289 278 278 285 304 312 316 322 328 343 235 228 215 207 211 201 250 231 220 285 298 35 350 356 219 220 245 262
320 325 335 334 316 282 299 296 285 246 277 248 279 307 288 284 294 283 281 317 322 332 29 355 343 318 317 318 326 32 215 215 194 180 244 258 139 265 335 297 278 83 298 285
330 332 333 332 331 287 287 288 292 249 256 283 290 284 291 293 277 280 298 336 328 8 359 4 340 302 326 323 320 327 144 197 225 233 241 276 15 327 307 199 276 320 307 299
325 324 330 324 325 312 290 284 288 271 264 286 280 273 251 276 253 249 319 328 329 15 16 360 300 296 313 296 272 309 304 319 256 214 236 248 3 323 301 337 316 297 311 305
321 318 322 314 318 316 292 283 289 294 254 271 292 293 280 263 250 265 285 286 311 227 340 324 301 294 301 315 295 309 319 267 291 241 296 261 290 272 286 298 284 289 318 304
319 318 319 312 293 285 284 285 285 292 281 293 291 303 278 356 234 230 225 233 209 211 211 241 271 277 269 295 296 281 279 7 269 293 264 308 279 338 328 322 306 351 330 306
318 314 314 313 303 285 283 277 276 276 271 279 284 297 300 292 275 242 237 242 231 260 214 231 244 260 209 272 274 270 250 313 298 254 287 326 339 341 340 352 20 19 36 44
321 316 316 312 294 293 289 282 275 261 240 286 293 307 294 317 286 253 235 234 239 239 197 226 239 234 250 228 287 269 283 301 330 322 303 304 296 339 7 5 6 20 18 42
324 320 315 306 299 298 314 313 327 252 216 262 296 312 307 339 327 220 217 221 226 231 235 238 260 250 240 283 286 276 306 335 334 302 324 346 6 23 17 5 2 29 32 19
322 318 313 303 291 269 238 254 298 313 188 254 277 294 287 316 305 229 209 211 213 227 241 228 250 277 223 239 244 289 343 353 9 3 5 1 33 27 22 19 15 25 24 8
320 317 311 298 275 260 265 284 246 199 213 255 275 276 318 306 339 348 241 220 212 225 256 251 227 275 230 259 256 327 349 13 6 10 25 39 41 40 34 36 29 22 14 18
328 320 327 328 0 179 252 293 277 223 218 291 222 255 271 325 255 215 235 235 249 223 232 246 247 357 234 221 254 337 348 2 360 18 29 35 47 46 46 49 43 28 20 31
340 334 294 228 251 280 296 216 218 175 204 231 249 211 265 296 289 280 191 225 284 271 236 275 188 260 269 259 286 344 2 37 29 30 24 27 38 38 28 35 45 44 36 39
358 347 312 299 285 296 240 234 212 186 249 225 243 230 227 252 206 237 219 205 257 305 304 331 303 285 247 173 149 44 35 76 56 71 64 52 47 37 37 31 29 46 54 50
327 318 309 307 281 254 286 222 203 200 235 210 204 242 213 247 225 217 217 189 38 256 331 307 265 254 210 172 163 120 87 83 70 65 60 48 47 39 34 39 34 42 70 88
312 275 259 243 245 222 214 223 246 226 202 353 314 274 226 204 221 233 90 113 235 346 33 239 232 256 183 180 186 175 138 103 85 73 61 49 54 42 39 43 45 47 66 91
300 267 255 206 218 226 203 205 177 6 296 314 315 260 198 189 155 172 136 221 76 20 307 244 247 222 190 184 201 199 165 131 111 91 79 81 58 51 47 43 43 51 61 80
244 232 238 233 234 256 255 257 280 288 302 315 321 266 215 207 195 204 107 122 252 205 234 236 262 207 192 183 186 214 190 161 143 112 115 105 75 51 51 55 55 60 65 70
234 231 250 253 289 279 255 297 309 331 321 320 240 271 272 226 170 145 210 144 223 248 225 246 245 187 177 174 173 185 173 172 177 161 132 114 99 66 62 61 56 53 53 58
232 239 241 258 281 272 285 300 307 316 314 249 152 224 207 301 258 228 165 204 224 223 222 227 217 203 205 211 215 204 185 201 182 177 154 151 128 83 67 76 67 64 68 68
Wind_Speed_850mb
59 59 60 57 63 67 55 17 4 17 8 7 4 1 8 17 8 5 9 8 9 10 7 10 8 10 8 13 5 9 4 2 7 12 12 8 4 6 4 8 11 14 6 13
63 56 57 55 54 60 55 24 9 9 17 4 5 11 10 10 7 9 5 8 5 5 6 11 9 12 11 31 3 5 3 2 7 10 6 9 5 5 8 3 2 10 9 14
65 61 53 53 47 49 38 15 8 8 11 7 4 8 8 8 17 15 6 10 14 5 8 14 13 18 16 17 7 27 8 7 9 8 5 3 9 16 18 11 8 15 31 24
58 61 55 51 47 40 26 15 3 5 8 6 8 7 9 13 13 7 23 8 7 16 15 28 33 20 12 22 26 11 12 12 12 18 22 20 21 26 29 29 24 18 7 6
54 53 57 51 48 40 15 14 10 9 15 25 8 9 6 16 13 10 19 11 27 27 25 30 42 34 23 16 7 5 5 5 4 20 22 27 31 30 34 36 36 34 29 28
52 51 52 51 37 38 12 18 8 5 11 7 4 7 9 11 30 21 18 32 35 29 32 41 59 63 67 36 21 10 7 4 1 11 10 13 18 35 37 39 29 23 29 14
52 52 49 45 27 31 26 24 16 4 8 5 8 14 32 32 18 21 38 46 22 24 66 75 49 36 37 31 31 35 14 13 6 7 3 10 9 8 19 39 31 28 19 20
54 50 48 39 22 21 26 26 15 7 8 15 24 15 12 34 36 32 30 44 45 51 30 9 12 7 2 6 10 23 29 17 6 6 8 18 23 4 10 9 4 18 12 22
59 52 48 43 28 16 26 27 26 16 10 9 22 32 28 12 8 9 16 43 43 21 7 6 7 6 7 7 11 2 25 26 14 8 8 9 5 4 24 14 7 10 7 15
53 51 51 38 35 19 22 27 29 21 15 30 17 15 14 18 11 8 16 20 14 19 8 8 5 6 10 7 12 10 1 6 24 17 10 12 15 24 24 10 1 19 18 21
47 51 45 31 28 20 26 30 31 36 23 55 50 34 28 33 26 6 13 18 6 8 12 6 5 5 6 7 7 11 6 8 3 7 8 9 22 23 10 13 35 30 29 26
47 48 42 27 23 25 26 35 30 32 51 57 79 82 71 75 71 39 10 9 9 3 3 2 5 5 5 9 6 5 5 4 6 4 4 9 22 32 54 55 40 24 29 41
47 45 41 32 27 24 26 36 34 36 37 53 39 23 10 11 8 24 18 11 10 8 10 4 4 8 3 5 5 6 7 1 5 9 5 21 14 37 37 35 27 37 18 16
46 44 40 34 29 26 32 37 38 38 20 11 21 17 55 51 35 36 43 34 11 10 10 8 4 6 10 5 10 5 7 10 12 7 12 34 20 45 43 52 47 43 22 14
46 44 40 37 32 30 33 39 45 46 32 9 28 61 5 15 20 31 39 47 41 13 5 6 6 7 7 6 5 5 4 7 6 6 31 19 24 34 52 58 54 52 36 29
44 43 39 33 28 25 22 12 5 8 32 7 8 18 14 18 13 12 32 40 35 16 6 8 11 10 5 3 5 9 16 35 30 13 45 24 33 39 45 49 50 51 49 33
43 41 37 30 25 20 17 8 12 9 21 7 10 12 10 20 7 1 11 21 18 15 8 9 8 7 6 3 5 11 36 35 28 41 37 23 35 29 41 38 44 50 48 39
42 37 31 27 23 23 26 13 28 14 13 10 5 8 15 3 7 5 5 8 10 12 8 6 6 6 2 5 11 16 20 24 34 37 34 26 28 31 31 30 30 36 42 41
41 27 15 8 4 6 4 16 15 36 26 10 6 4 7 9 6 5 6 9 4 6 4 5 2 2 6 11 5 14 21 19 29 26 34 36 35 31 31 26 24 24 37 48
33 13 2 5 3 10 13 5 7 11 17 16 8 10 6 8 5 5 4 5 4 4 5 4 3 6 17 13 3 11 16 14 21 32 41 37 39 33 29 28 23 20 25 32
31 20 6 12 15 11 5 5 8 9 6 11 11 19 11 11 6 6 3 3 2 3 4 1 5 6 7 9 6 6 9 13 16 23 23 25 31 32 30 32 27 19 21 27
34 21 20 14 3 6 2 6 6 8 8 9 8 9 19 10 14 3 2 2 3 7 8 2 5 7 11 11 6 3 7 16 20 19 20 22 29 36 35 30 30 25 15 14
5 4 6 5 5 6 10 8 5 5 3 7 13 7 9 9 11 4 3 3 7 3 4 6 8 7 18 16 9 8 9 14 15 17 16 16 24 35 41 33 31 27 17 14
4 6 8 8 8 10 9 7 4 10 16 27 37 13 13 9 4 3 5 4 5 5 3 9 6 15 23 21 14 13 14 10 11 13 15 16 22 33 39 42 40 37 33 21
8 8 10 11 20 16 11 12 13 19 30 23 26 10 8 4 4 4 2 2 5 10 9 7 15 15 19 20 15 14 15 9 6 8 10 13 15 26 36 37 40 43 44 41
9 14 11 20 7 9 5 7 19 19 28 31 8 4 5 9 7 7 12 10 11 8 7 18 13 26 26 22 12 13 18 7 10 8 6 8 9 17 26 27 34 39 43 45
10 14 24 38 33 27 28 17 36 33 18 4 5 4 8 4 4 4 9 9 7 13 15 13 22 34 34 27 17 17 20 14 9 14 6 5 9 10 16 23 30 34 38 41
Wind_Direction_850mb
350 351 351 356 355 354 2 1 43 360 331 23 48 57 307 300 288 290 285 280 243 252 294 278 272 258 309 329 349 317 321 1 283 264 290 344 338 257 230 205 253 252 130 278
348 349 348 354 358 356 352 347 319 358 352 75 322 306 289 270 286 295 305 293 262 322 300 294 266 271 310 310 297 285 335 308 312 323 350 28 86 315 268 228 158 221 224 242
345 349 346 347 360 357 354 352 358 344 51 79 78 318 292 284 316 288 254 260 269 294 270 236 274 273 309 303 233 303 266 216 218 221 293 346 298 296 299 273 256 252 245 288
339 346 347 344 351 1 3 6 26 356 306 326 326 239 282 279 325 281 304 295 237 301 288 300 271 277 291 272 297 308 183 229 220 243 260 268 259 268 271 262 256 249 327 292
335 338 344 344 343 3 3 3 360 335 291 295 275 265 240 283 315 308 300 249 290 292 282 273 285 283 267 254 279 224 164 265 258 280 263 245 251 259 258 251 246 255 257 269
332 334 337 344 345 351 354 342 310 281 267 293 342 251 275 308 309 282 260 290 294 295 280 290 282 274 268 252 247 210 195 238 269 269 264 322 288 246 237 243 238 219 234 224
328 331 332 337 344 330 331 336 326 281 272 236 223 286 288 288 293 280 285 290 274 279 308 302 292 260 253 248 244 230 202 196 217 265 7 245 227 341 301 244 230 221 248 247
321 322 330 330 325 317 309 308 300 242 269 255 294 299 289 299 289 278 278 285 304 312 316 322 328 343 235 228 215 207 211 201 250 231 220 285 298 35 350 356 219 220 245 262
320 325 335 334 316 282 299 296 285 246 277 248 279 307 288 284 294 283 281 317 322 332 29 355 343 318 317 318 326 32 215 215 194 180 244 258 139 265 335 297 278 83 298 285
330 332 333 332 331 287 287 288 292 249 256 283 290 284 291 293 277 280 298 336 328 8 359 4 340 302 326 323 320 327 144 197 225 233 241 276 15 327 307 199 276 320 307 299
325 324 330 324 325 312 290 284 288 271 264 286 280 273 251 276 253 249 319 328 329 15 16 360 300 296 313 296 272 309 304 319 256 214 236 248 3 323 301 337 316 297 311 305
321 318 322 314 318 316 292 283 289 294 254 271 292 293 280 263 250 265 285 286 311 227 340 324 301 294 301 315 295 309 319 267 291 241 296 261 290 272 286 298 284 289 318 304
319 318 319 312 293 285 284 285 285 292 281 293 291 303 278 356 234 230 225 233 209 211 211 241 271 277 269 295 296 281 279 7 269 293 264 308 279 338 328 322 306 351 330 306
318 314 314 313 303 285 283 277 276 276 271 279 284 297 300 292 275 242 237 242 231 260 214 231 244 260 209 272 274 270 250 313 298 254 287 326 339 341 340 352 20 19 36 44
321 316 316 312 294 293 289 282 275 261 240 286 293 307 294 317 286 253 235 234 239 239 197 226 239 234 250 228 287 269 283 301 330 322 303 304 296 339 7 5 6 20 18 42
324 320 315 306 299 298 314 313 327 252 216 262 296 312 307 339 327 220 217 221 226 231 235 238 260 250 240 283 286 276 306 335 334 302 324 346 6 23 17 5 2 29 32 19
322 318 313 303 291 269 238 254 298 313 188 254 277 294 287 316 305 229 209 211 213 227 241 228 250 277 223 239 244 289 343 353 9 3 5 1 33 27 22 19 15 25 24 8
320 317 311 298 275 260 265 284 246 199 213 255 275 276 318 306 339 348 241 220 212 225 256 251 227 275 230 259 256 327 349 13 6 10 25 39 41 40 34 36 29 22 14 18
328 320 327 328 0 179 252 293 277 223 218 291 222 255 271 325 255 215 235 235 249 223 232 246 247 357 234 221 254 337 348 2 360 18 29 35 47 46 46 49 43 28 20 31
340 334 294 228 251 280 296 216 218 175 204 231 249 211 265 296 289 280 191 225 284 271 236 275 188 260 269 259 286 344 2 37 29 30 24 27 38 38 28 35 45 44 36 39
358 347 312 299 285 296 240 234 212 186 249 225 243 230 227 252 206 237 219 205 257 305 304 331 303 285 247 173 149 44 35 76 56 71 64 52 47 37 37 31 29 46 54 50
327 318 309 307 281 254 286 222 203 200 235 210 204 242 213 247 225 217 217 189 38 256 331 307 265 254 210 172 163 120 87 83 70 65 60 48 47 39 34 39 34 42 70 88
312 275 259 243 245 222 214 223 246 226 202 353 314 274 226 204 221 233 90 113 235 346 33 239 232 256 183 180 186 175 138 103 85 73 61 49 54 42 39 43 45 47 66 91
300 267 255 206 218 226 203 205 177 6 296 314 315 260 198 189 155 172 136 221 76 20 307 244 247 222 190 184 201 199 165 131 111 91 79 81 58 51 47 43 43 51 61 80
244 232 238 233 234 256 255 257 280 288 302 315 321 266 215 207 195 204 107 122 252 205 234 236 262 207 192 183 186 214 190 161 143 112 115 105 75 51 51 55 55 60 65 70
234 231 250 253 289 279 255 297 309 331 321 320 240 271 272 226 170 145 210 144 223 248 225 246 245 187 177 174 173 185 173 172 177 161 132 114 99 66 62 61 56 53 53 58
232 239 241 258 281 272 285 300 307 316 314 249 152 224 207 301 258 228 165 204 224 223 222 227 217 203 205 211 215 204 185 201 182 177 154 151 128 83 67 76 67 64 68 68